Marshfield, MA

6:09 PM EST on December 11, 2017 (GMT -0500)
Marshfield

Weather History for KGHG - February, 2014

Change the Weather History Date:

Monday, February 17, 2014

  Actual Average (KPYM) Record (KPYM)
Temperature  
Mean Temperature 24 °F -  
Max Temperature 32 °F 40 °F 55 °F (1976)
Min Temperature 15 °F 17 °F -1 °F (1979)
Degree Days  
Heating Degree Days 42    
Moisture  
Dew Point 4 °F    
Average Humidity 44    
Maximum Humidity 68    
Minimum Humidity 27    
Precipitation  
Precipitation 0.00 in - - ()
Sea Level Pressure  
Sea Level Pressure 30.21 in    
Wind  
Wind Speed 9 mph (WNW)    
Max Wind Speed 20 mph    
Max Gust Speed 28 mph    
Visibility 10 miles    
Events      
Averages and records for this station are not official NWS values.
T = Trace of Precipitation, MM = Missing Value Source: NWS Daily Summary

Daily Weather History Graph

Daily Weather History Graph

Search for Another Location

Airport or City:

Trip Planner

Search our weather history database for the weather conditions in past years. The results will help you decide how hot, cold, wet, or windy it might be!

Date:

Astronomy

Feb. 17, 2014 Rise Set
Actual Time 6:35 AM EST 5:17 PM EST
Civil Twilight 6:07 AM EST 5:46 PM EST
Nautical Twilight 5:34 AM EST 6:19 PM EST
Astronomical Twilight 5:02 AM EST 6:51 PM EST
Moon 8:13 PM EST (2/17) 7:31 AM EST (2/17)
Length of Visible Light 11h 39m
Length of Day
10h 41m
Waning Gibbous, 93% of the Moon is Illuminated
Feb 17
Waning Gibbous
Feb 22
Last Quarter
Mar 1
New
Mar 8
First Quarter
Mar 16
Full

Hourly Weather History & Observations

Time (EST) Temp. Windchill Dew Point Humidity Pressure Visibility Wind Dir Wind Speed Gust Speed Precip Events Conditions
12:15 AM 24.8 °F 16.1 °F 14.0 °F 64% 29.97 in 10.0 mi West 8.1 mph - N/A   Clear
12:35 AM 24.8 °F 16.9 °F 12.2 °F 59% 29.98 in 10.0 mi West 6.9 mph - N/A   Clear
12:55 AM 24.8 °F 15.3 °F 12.2 °F 59% 29.98 in 10.0 mi WNW 9.2 mph - N/A   Partly Cloudy
1:15 AM 24.8 °F 16.9 °F 12.2 °F 59% 29.99 in 10.0 mi WNW 6.9 mph - N/A   Clear
1:35 AM 24.8 °F 16.9 °F 12.2 °F 59% 30.00 in 10.0 mi WNW 6.9 mph - N/A   Clear
1:55 AM 23.0 °F 12.4 °F 8.6 °F 54% 30.01 in 10.0 mi NW 10.4 mph 16.1 mph N/A   Clear
2:15 AM 23.0 °F 13.1 °F 6.8 °F 50% 30.01 in 10.0 mi WNW 9.2 mph - N/A   Clear
2:35 AM 21.2 °F 10.1 °F 5.0 °F 50% 30.02 in 10.0 mi NW 10.4 mph - N/A   Clear
2:55 AM 21.2 °F 10.9 °F 5.0 °F 50% 30.03 in 10.0 mi WNW 9.2 mph 20.7 mph N/A   Clear
3:15 AM 19.4 °F 8.6 °F 5.0 °F 54% 30.04 in 10.0 mi WNW 9.2 mph - N/A   Clear
3:35 AM 19.4 °F 7.9 °F 3.2 °F 49% 30.05 in 10.0 mi NW 10.4 mph 17.3 mph N/A   Clear
3:55 AM 19.4 °F 9.5 °F 3.2 °F 49% 30.06 in 10.0 mi WNW 8.1 mph - N/A   Clear
4:15 AM 19.4 °F 11.5 °F 3.2 °F 49% 30.06 in 10.0 mi WNW 5.8 mph - N/A   Clear
4:35 AM 19.4 °F 8.6 °F 3.2 °F 49% 30.07 in 10.0 mi WNW 9.2 mph - N/A   Clear
4:55 AM 17.6 °F 8.2 °F 3.2 °F 53% 30.08 in 10.0 mi WNW 6.9 mph - N/A   Clear
5:15 AM 17.6 °F 7.3 °F 3.2 °F 53% 30.09 in 10.0 mi WNW 8.1 mph 17.3 mph N/A   Clear
5:35 AM 17.6 °F 9.3 °F 3.2 °F 53% 30.10 in 10.0 mi WNW 5.8 mph - N/A   Clear
5:55 AM 17.6 °F 6.4 °F 3.2 °F 53% 30.11 in 10.0 mi West 9.2 mph 18.4 mph N/A   Clear
6:15 AM 17.6 °F 9.3 °F 3.2 °F 53% 30.12 in 10.0 mi WNW 5.8 mph - N/A   Clear
6:35 AM 17.6 °F 6.4 °F 3.2 °F 53% 30.13 in 10.0 mi WNW 9.2 mph 17.3 mph N/A   Clear
6:55 AM 17.6 °F 7.3 °F 3.2 °F 53% 30.14 in 10.0 mi West 8.1 mph - N/A   Clear
7:15 AM 17.6 °F 8.2 °F 3.2 °F 53% 30.16 in 10.0 mi WNW 6.9 mph - N/A   Clear
7:35 AM 17.6 °F 5.7 °F 3.2 °F 53% 30.17 in 10.0 mi West 10.4 mph 17.3 mph N/A   Clear
7:55 AM 19.4 °F 11.5 °F 3.2 °F 49% 30.18 in 10.0 mi WNW 5.8 mph - N/A   Clear
8:15 AM 19.4 °F 7.9 °F 3.2 °F 49% 30.19 in 10.0 mi WNW 10.4 mph 16.1 mph N/A   Clear
8:35 AM 19.4 °F 7.2 °F 3.2 °F 49% 30.20 in 10.0 mi WNW 11.5 mph 21.9 mph N/A   Clear
8:55 AM 21.2 °F 8.9 °F 1.4 °F 42% 30.21 in 10.0 mi West 12.7 mph 17.3 mph N/A   Clear
9:15 AM 21.2 °F 10.9 °F 3.2 °F 46% 30.21 in 10.0 mi WNW 9.2 mph 18.4 mph N/A   Clear
9:35 AM 23.0 °F 14.7 °F 3.2 °F 43% 30.22 in 10.0 mi NW 6.9 mph 17.3 mph N/A   Clear
9:55 AM 23.0 °F 13.1 °F 3.2 °F 43% 30.22 in 10.0 mi WNW 9.2 mph 17.3 mph N/A   Clear
10:15 AM 23.0 °F 11.7 °F 3.2 °F 43% 30.23 in 10.0 mi WNW 11.5 mph 23.0 mph N/A   Clear
10:35 AM 24.8 °F 14.0 °F 3.2 °F 40% 30.24 in 10.0 mi WNW 11.5 mph 18.4 mph N/A   Clear
10:55 AM 24.8 °F 16.1 °F 3.2 °F 40% 30.24 in 10.0 mi NW 8.1 mph 16.1 mph N/A   Clear
11:15 AM 26.6 °F 16.2 °F 3.2 °F 37% 30.24 in 10.0 mi WNW 11.5 mph 19.6 mph N/A   Clear
11:35 AM 26.6 °F 16.2 °F 3.2 °F 37% 30.24 in 10.0 mi WNW 11.5 mph 21.9 mph N/A   Clear
11:55 AM 28.4 °F 18.0 °F 3.2 °F 34% 30.24 in 10.0 mi WNW 12.7 mph 23.0 mph N/A   Clear
12:15 PM 26.6 °F 15.7 °F 3.2 °F 37% 30.24 in 10.0 mi WNW 12.7 mph 27.6 mph N/A   Clear
12:35 PM 28.4 °F 18.5 °F 3.2 °F 34% 30.24 in 10.0 mi WNW 11.5 mph 24.2 mph N/A   Clear
12:55 PM 28.4 °F 18.5 °F 3.2 °F 34% 30.24 in 10.0 mi WNW 11.5 mph 21.9 mph N/A   Clear
1:15 PM 30.2 °F 21.3 °F 1.4 °F 29% 30.24 in 10.0 mi WNW 10.4 mph 24.2 mph N/A   Clear
1:35 PM 30.2 °F 17.8 °F 1.4 °F 29% 30.24 in 10.0 mi NW 19.6 mph 24.2 mph N/A   Clear
1:55 PM 30.2 °F 19.3 °F 1.4 °F 29% 30.24 in 10.0 mi NW 15.0 mph 23.0 mph N/A   Clear
2:15 PM 30.2 °F 19.8 °F 1.4 °F 29% 30.24 in 10.0 mi WNW 13.8 mph 24.2 mph N/A   Clear
2:35 PM 30.2 °F 20.2 °F 1.4 °F 29% 30.25 in 10.0 mi WNW 12.7 mph 21.9 mph N/A   Clear
2:55 PM 32.0 °F 22.5 °F 1.4 °F 27% 30.27 in 10.0 mi NW 12.7 mph 19.6 mph N/A   Clear
3:15 PM 32.0 °F 24.2 °F 1.4 °F 27% 30.27 in 10.0 mi WNW 9.2 mph 19.6 mph N/A   Clear
3:35 PM 32.0 °F 21.6 °F 1.4 °F 27% 30.28 in 10.0 mi NW 15.0 mph 20.7 mph N/A   Clear
3:55 PM 30.2 °F 24.3 °F 1.4 °F 29% 30.28 in 10.0 mi NNW 5.8 mph 18.4 mph N/A   Clear
4:15 PM 30.2 °F 22.6 °F 1.4 °F 29% 30.29 in 10.0 mi NW 8.1 mph - N/A   Clear
4:35 PM 30.2 °F 22.6 °F 1.4 °F 29% 30.29 in 10.0 mi NW 8.1 mph 17.3 mph N/A   Clear
4:55 PM 30.2 °F 21.9 °F 1.4 °F 29% 30.31 in 10.0 mi NW 9.2 mph - N/A   Clear
5:15 PM 28.4 °F 19.1 °F 1.4 °F 31% 30.31 in 10.0 mi NW 10.4 mph 17.3 mph N/A   Clear
5:35 PM 28.4 °F 18.5 °F 1.4 °F 31% 30.32 in 10.0 mi WNW 11.5 mph 18.4 mph N/A   Clear
5:55 PM 28.4 °F 19.7 °F 1.4 °F 31% 30.32 in 10.0 mi WNW 9.2 mph 17.3 mph N/A   Clear
6:15 PM 26.6 °F 19.1 °F 1.4 °F 34% 30.33 in 10.0 mi West 6.9 mph - N/A   Clear
6:35 PM 26.6 °F - 1.4 °F 34% 30.35 in 10.0 mi Calm Calm - N/A   Clear
6:55 PM 26.6 °F 20.0 °F 1.4 °F 34% 30.34 in 10.0 mi WNW 5.8 mph - N/A   Clear
7:15 PM 26.6 °F 20.0 °F 1.4 °F 34% 30.34 in 10.0 mi West 5.8 mph - N/A   Clear
7:35 PM 26.6 °F 17.5 °F 1.4 °F 34% 30.35 in 10.0 mi WNW 9.2 mph - N/A   Clear
7:55 PM 26.6 °F 20.0 °F 3.2 °F 37% 30.36 in 10.0 mi West 5.8 mph - N/A   Clear
8:15 PM 24.8 °F 19.1 °F 3.2 °F 40% 30.36 in 10.0 mi WNW 4.6 mph - N/A   Clear
8:35 PM 23.0 °F 13.9 °F 3.2 °F 43% 30.36 in 10.0 mi WNW 8.1 mph - N/A   Clear
8:55 PM 23.0 °F 14.7 °F 3.2 °F 43% 30.37 in 10.0 mi WNW 6.9 mph - N/A   Clear
9:15 PM 23.0 °F 17.0 °F 3.2 °F 43% 30.37 in 10.0 mi NW 4.6 mph - N/A   Clear
9:35 PM 23.0 °F 17.0 °F 3.2 °F 43% 30.36 in 10.0 mi WNW 4.6 mph - N/A   Clear
9:55 PM 21.2 °F 14.9 °F 5.0 °F 50% 30.35 in 10.0 mi West 4.6 mph - N/A   Clear
10:15 PM 19.4 °F 12.8 °F 5.0 °F 54% 30.34 in 10.0 mi NW 4.6 mph - N/A   Clear
10:35 PM 19.4 °F 14.3 °F 5.0 °F 54% 30.32 in 10.0 mi West 3.5 mph - N/A   Clear
10:55 PM 17.6 °F 9.3 °F 8.6 °F 68% 30.33 in 10.0 mi West 5.8 mph - N/A   Clear
11:15 PM 17.6 °F 10.7 °F 6.8 °F 63% 30.34 in 10.0 mi SW 4.6 mph - N/A   Clear
11:35 PM 15.8 °F 7.2 °F 6.8 °F 68% 30.36 in 10.0 mi West 5.8 mph - N/A   Clear
11:55 PM 15.8 °F 8.6 °F 5.0 °F 62% 30.39 in 10.0 mi WSW 4.6 mph - N/A   Clear